Flag for Malaysia

Past Weather in Penang, Penang, Malaysia — Yesterday and Last 2 Weeks

Now
82 °F

Passing clouds.


Feels Like: 89 °F
Forecast: 89 / 79 °F
Wind: 6 mph from Northeast

Location: Butterworth Air Base
Current Time: Sep 20, 2020 at 1:33:30 pm
Latest Report: Sep 20, 2020 at 1:00 pm
Visibility: N/A
Pressure29.80 "Hg
Humidity: 79%
Dew Point: 75 °F
Location of PenangLocation

Past Weather in Penang — Graph

°F

Penang Temperature Yesterday

Maximum temperature yesterday: 88 °F (at 1:00 pm)
Minimum temperature yesterday: 75 °F (at 12:00 am)
Average temperature yesterday: 81 °F

High & Low Weather Summary for the Past Weeks

 TemperatureHumidityPressure
High91 °F (Sep 8, 3:00 pm)100% (Sep 11, 1:00 am)29.92 "Hg (Sep 11, 1:00 am)
Low75 °F (Sep 8, 6:00 am)52% (Sep 5, 4:00 pm)29.65 "Hg (Sep 10, 5:00 pm)
Average81 °F82%29.79 "Hg
* Reported Sep 5 12:00 pm — Sep 20 12:00 pm, Penang. Weather by CustomWeather, © 2020

Note: Actual official high and low records may vary slightly from our data, if they occured in-between our weather recording intervals... More about our weather records

Penang Weather History for the Previous 24 Hours

Scroll right to see more
 ConditionsComfort  
Time TempWeatherWind HumidityBarometerVisibility
12:00 pm
Sun, Sep 20
82 °FPassing clouds.6 mph79%29.83 "HgN/A
11:00 am81 °FPassing clouds.6 mph84%29.86 "Hg5 mi
10:00 am79 °FScattered clouds.12 mph89%29.86 "Hg3 mi
9:00 am81 °FLight rain. Scattered clouds.12 mph84%29.86 "Hg3 mi
8:00 am77 °FLight rain. Scattered clouds.7 mph94%29.83 "Hg3 mi
7:00 am79 °FPassing clouds.5 mph89%29.80 "Hg4 mi
6:00 am79 °FPassing clouds.6 mph89%29.77 "Hg5 mi
5:00 am79 °FPassing clouds.No wind94%29.77 "Hg5 mi
4:00 am81 °FPassing clouds.No wind89%29.77 "Hg5 mi
3:00 am81 °FPassing clouds.2 mph89%29.77 "Hg5 mi
2:00 am81 °FPassing clouds.No wind89%29.77 "Hg5 mi
1:00 am81 °FPassing clouds.1 mph89%29.80 "Hg6 mi
12:00 am81 °FPassing clouds.6 mph89%29.80 "Hg6 mi
11:00 pm
Sat, Sep 19
82 °FPassing clouds.3 mph84%29.77 "Hg6 mi
10:00 pm82 °FPassing clouds.1 mph84%29.77 "Hg6 mi
9:00 pm84 °FPassing clouds.3 mph79%29.74 "Hg6 mi
8:00 pm86 °FPassing clouds.9 mph70%29.71 "Hg6 mi
7:00 pm86 °FPassing clouds.9 mph70%29.68 "HgN/A
6:00 pm86 °FScattered clouds.8 mph70%29.68 "HgN/A
5:00 pm86 °FScattered clouds.12 mph75%29.68 "HgN/A
4:00 pm86 °FScattered clouds.12 mph75%29.65 "Hg6 mi
3:00 pm86 °FScattered clouds.15 mph75%29.68 "Hg6 mi
2:00 pm88 °FScattered clouds.12 mph70%29.71 "Hg6 mi
1:00 pm88 °FScattered clouds.10 mph70%29.74 "Hg6 mi
Weather by CustomWeather, © 2020

See weather overview